This is the latest recevied weather packets stored in our database for station/object WP4PW. If no packets are shown the sender has not sent any weather packets the latest 1 day(s).
| Time | Temp. | Humidity | Pressure | Rain* | Wind** | Luminosity | Snow |
|---|---|---|---|---|---|---|---|
| 1778090001 | 30° C | 80% | 1021.5 hPa | 0 mm | - | 746 W/m² | - |
| 1778089698 | 30° C | 78% | 1021.6 hPa | 0 mm | - | 756 W/m² | - |
| 1778088183 | 30° C | 78% | 1022.1 hPa | 0 mm | - | 785 W/m² | - |
| 1778086367 | 30° C | 79% | 1022.5 hPa | 0 mm | - | 819 W/m² | - |
| 1778085152 | 30° C | 77% | 1022.8 hPa | 0 mm | - | 821 W/m² | - |
| 1778082730 | 30° C | 79% | 1023.4 hPa | 0 mm | - | 815 W/m² | - |
| 1778080986 | 30.56° C | 77% | 1023.5 hPa | 0 mm | - | 794 W/m² | - |
| 1778078260 | 30° C | 75% | 1023.4 hPa | 0 mm | - | 720 W/m² | - |
| 1778075840 | 29.44° C | 78% | 1023.4 hPa | 0 mm | - | 633 W/m² | - |
| 1778075536 | 29.44° C | 77% | 1023.3 hPa | 0 mm | - | 621 W/m² | - |
| 1778074627 | 29.44° C | 79% | 1023.2 hPa | 0 mm | - | 586 W/m² | - |
| 1778074323 | 28.89° C | 79% | 1023.3 hPa | 0 mm | - | 567 W/m² | - |
| 1778073717 | 28.89° C | 80% | 1023.2 hPa | 0 mm | - | 534 W/m² | - |
| 1778073111 | 29.44° C | 79% | 1023.2 hPa | 0 mm | - | 522 W/m² | - |
| 1778071901 | 29.44° C | 79% | 1022.9 hPa | 0 mm | - | 518 W/m² | - |
| 1778069784 | 28.89° C | 80% | 1022.7 hPa | 0 mm | - | 225 W/m² | - |
| 1778069480 | 28.89° C | 80% | 1022.7 hPa | 0 mm | - | 243 W/m² | - |
| 1778067968 | 28.89° C | 81% | 1022.4 hPa | 0 mm | - | 233 W/m² | - |
| 1778067061 | 28.33° C | 83% | 1022.4 hPa | 0 mm | - | 243 W/m² | - |
| 1778066455 | 27.78° C | 84% | 1022.1 hPa | 0 mm | - | 181 W/m² | - |
| 1778066153 | 27.78° C | 84% | 1022.2 hPa | 0 mm | - | 87 W/m² | - |
| 1778065850 | 27.78° C | 84% | 1022 hPa | 0 mm | - | 70 W/m² | - |
| 1778064336 | 27.78° C | 85% | 1022 hPa | 0 mm | - | 95 W/m² | - |
| 1778064034 | 27.22° C | 86% | 1022.1 hPa | 0 mm | - | 92 W/m² | - |
| 1778063427 | 26.67° C | 86% | 1021.8 hPa | 0 mm | - | 51 W/m² | - |
* Rain latest hour (hover to see other rain measurements)
** Current wind speed in m/s (hover to see current wind gust speed)